Terminal Aerodrome Forecast
Issued by NWS

Home | Current Version | Previous Version | Text Only | Print | Product List | Glossary Off
Versions: 1 2 3 4 5 6 7 8 9 10 11 12 13 14 15 16 17 18 19 20 21 22 23 24 25 26 27 28 29 30

000
FTUS43 KLOT 191400 AAA
TAFMDW
TAF AMD
KMDW 191411Z 1914/2012 09010KT P6SM FEW300
     FM191600 12010KT P6SM FEW300
     FM200100 16008KT P6SM SCT250=

USA.gov is the U.S. government's official web portal to all federal, state and local government web resources and services.